"FRM_AIS_EDR_2760.DAT           ",2006-03-06T12:06:58.50 ,"1/0089726814.58208",    0,    0,   15254,"AIS","B1","B2","B0","B0","PISd",0,0,0,0,"B1", 0,15,   0, 0,    0,"AIS","N/A    ","OK ","OK ",    001067.052,    0005.660,    -160.851,    0019.166,    0106.268
"FRM_AIS_EDR_2760.DAT           ",2006-03-06T12:07:06.04 ,"1/0089726822.28272",    0,    1,   15254,"AIS","B1","B2","B0","B0","PISd",0,0,0,0,"B1", 0,15,   0, 0,    0,"AIS","N/A    ","OK ","OK ",    001056.927,    0005.319,    -160.861,    0019.167,    0106.354
"FRM_AIS_EDR_2760.DAT           ",2006-03-06T12:07:13.58 ,"1/0089726829.63871",    0,    2,   15254,"AIS","B1","B2","B0","B0","PISd",0,0,0,0,"B1", 0,15,   0, 0,    0,"AIS","N/A    ","OK ","OK ",    001046.840,    0004.976,    -160.871,    0019.169,    0106.439
"FRM_AIS_EDR_2760.DAT           ",2006-03-06T12:07:21.13 ,"1/0089726837.33935",    0,    3,   15254,"AIS","B1","B2","B0","B0","PISd",0,0,0,0,"B1", 0,15,   0, 0,    0,"AIS","N/A    ","OK ","OK ",    001036.791,    0004.631,    -160.881,    0019.170,    0106.523
"FRM_AIS_EDR_2760.DAT           ",2006-03-06T12:07:28.67 ,"1/0089726845.03998",    0,    4,   15254,"AIS","B1","B2","B0","B0","PISd",0,0,0,0,"B1", 0,15,   0, 0,    0,"AIS","N/A    ","OK ","OK ",    001026.781,    0004.285,    -160.891,    0019.171,    0106.608
"FRM_AIS_EDR_2760.DAT           ",2006-03-06T12:07:36.21 ,"1/0089726852.39597",    0,    5,   15254,"AIS","B1","B2","B0","B0","PISd",0,0,0,0,"B1", 0,15,   0, 0,    0,"AIS","N/A    ","OK ","OK ",    001016.810,    0003.938,    -160.901,    0019.173,    0106.693
"FRM_AIS_EDR_2760.DAT           ",2006-03-06T12:07:43.75 ,"1/0089726860.09661",    0,    6,   15254,"AIS","B1","B2","B0","B0","PISd",0,0,0,0,"B1", 0,15,   0, 0,    0,"AIS","N/A    ","OK ","OK ",    001006.879,    0003.588,    -160.911,    0019.174,    0106.777
"FRM_AIS_EDR_2760.DAT           ",2006-03-06T12:07:51.30 ,"1/0089726867.45260",    0,    7,   15254,"AIS","B1","B2","B0","B0","PISd",0,0,0,0,"B1", 0,15,   0, 0,    0,"AIS","N/A    ","OK ","OK ",    000996.988,    0003.238,    -160.921,    0019.175,    0106.861
"FRM_AIS_EDR_2760.DAT           ",2006-03-06T12:07:58.84 ,"1/0089726875.15323",    0,    8,   15254,"AIS","B1","B2","B0","B0","PISd",0,0,0,0,"B1", 0,15,   0, 0,    0,"AIS","N/A    ","OK ","OK ",    000987.138,    0002.885,    -160.931,    0019.177,    0106.944
"FRM_AIS_EDR_2760.DAT           ",2006-03-06T12:08:06.38 ,"1/0089726882.50923",    0,    9,   15254,"AIS","B1","B2","B0","B0","PISd",0,0,0,0,"B1", 0,15,   0, 0,    0,"AIS","N/A    ","OK ","OK ",    000977.330,    0002.531,    -160.941,    0019.178,    0107.028
"FRM_AIS_EDR_2760.DAT           ",2006-03-06T12:08:13.93 ,"1/0089726890.20986",    0,   10,   15254,"AIS","B1","B2","B0","B0","PISd",0,0,0,0,"B1", 0,15,   0, 0,    0,"AIS","N/A    ","OK ","OK ",    000967.565,    0002.176,    -160.950,    0019.179,    0107.111
"FRM_AIS_EDR_2760.DAT           ",2006-03-06T12:08:21.47 ,"1/0089726897.56586",    0,   11,   15254,"AIS","B1","B2","B0","B0","PISd",0,0,0,0,"B1", 0,15,   0, 0,    0,"AIS","N/A    ","OK ","OK ",    000957.841,    0001.819,    -160.960,    0019.181,    0107.194
"FRM_AIS_EDR_2760.DAT           ",2006-03-06T12:08:29.01 ,"1/0089726905.26649",    0,   12,   15254,"AIS","B1","B2","B0","B0","PISd",0,0,0,0,"B1", 0,15,   0, 0,    0,"AIS","N/A    ","OK ","OK ",    000948.162,    0001.460,    -160.969,    0019.183,    0107.277
"FRM_AIS_EDR_2760.DAT           ",2006-03-06T12:08:36.56 ,"1/0089726912.62248",    0,   13,   15254,"AIS","B1","B2","B0","B0","PISd",0,0,0,0,"B1", 0,15,   0, 0,    0,"AIS","N/A    ","OK ","OK ",    000938.526,    0001.099,    -160.979,    0019.184,    0107.359
"FRM_AIS_EDR_2760.DAT           ",2006-03-06T12:08:44.10 ,"1/0089726920.32312",    0,   14,   15254,"AIS","B1","B2","B0","B0","PISd",0,0,0,0,"B1", 0,15,   0, 0,    0,"AIS","N/A    ","OK ","OK ",    000928.934,    0000.737,    -160.988,    0019.185,    0107.441
"FRM_SS2_TRK_CMP_EDR_2760.DAT   ",2006-03-06T12:08:58.15 ,"1/0089726934.35537",    1,    0,    1884,"SS2","B4","B1","B4","B1","PISd",1,2,1,1,"B2", 0, 7,   0, 0,    0,"TRK","NO  REC","OK ","OK ",    000911.191,    0000.059,    -161.005,    0019.188,    0107.592
"FRM_SS2_TRK_CMP_EDR_2760.DAT   ",2006-03-06T12:09:00.84 ,"1/0089726937.15042",    1,    1,    1884,"SS2","B4","B1","B4","B1","PISd",1,2,1,1,"B2", 0, 7,   0, 0,    0,"TRK","NO  REC","OK ","OK ",    000907.815,    -000.071,    -161.008,    0019.188,    0107.621
"FRM_SS2_TRK_CMP_EDR_2760.DAT   ",2006-03-06T12:09:03.52 ,"1/0089726939.59567",    1,    2,    1884,"SS2","B4","B1","B4","B1","PISd",1,2,1,1,"B2", 0, 7,   0, 0,    0,"TRK","NO  REC","OK ","OK ",    000904.455,    -000.202,    -161.012,    0019.189,    0107.650
"FRM_SS2_TRK_CMP_EDR_2760.DAT   ",2006-03-06T12:09:06.19 ,"1/0089726942.38042",    1,    3,    1884,"SS2","B4","B1","B4","B1","PISd",1,2,1,1,"B2", 0, 7,   0, 0,    0,"TRK","NO  REC","OK ","OK ",    000901.111,    -000.332,    -161.015,    0019.189,    0107.679
"FRM_SS2_TRK_CMP_EDR_2760.DAT   ",2006-03-06T12:09:08.85 ,"1/0089726945.16002",    1,    4,    1884,"SS2","B4","B1","B4","B1","PISd",1,2,1,1,"B2", 0, 7,   0, 0,    0,"TRK","NO  REC","OK ","OK ",    000897.783,    -000.461,    -161.018,    0019.190,    0107.707
"FRM_SS2_TRK_CMP_EDR_2760.DAT   ",2006-03-06T12:09:12.95 ,"1/0089726949.22662",    2,    0,    1920,"SS2","B3","B1","B3","B1","PISd",1,2,1,1,"B2", 0,11,   0, 0,    0,"TRK","NO  REC","OK ","OK ",    000892.669,    -000.662,    -161.023,    0019.191,    0107.751
"FRM_SS2_TRK_CMP_EDR_2760.DAT   ",2006-03-06T12:09:15.60 ,"1/0089726951.65128",    2,    1,    1920,"SS2","B3","B1","B3","B1","PISd",1,2,1,1,"B2", 0,11,   0, 0,    0,"TRK","NO  REC","OK ","OK ",    000889.375,    -000.791,    -161.026,    0019.191,    0107.779
"FRM_SS2_TRK_CMP_EDR_2760.DAT   ",2006-03-06T12:09:18.24 ,"1/0089726954.41543",    2,    2,    1920,"SS2","B3","B1","B3","B1","PISd",1,2,1,1,"B2", 0,11,   0, 0,    0,"TRK","NO  REC","OK ","OK ",    000886.096,    -000.921,    -161.029,    0019.192,    0107.807
"FRM_SS2_TRK_CMP_EDR_2760.DAT   ",2006-03-06T12:09:20.88 ,"1/0089726957.17958",    2,    3,    1920,"SS2","B3","B1","B3","B1","PISd",1,2,1,1,"B2", 0,11,   0, 0,    0,"TRK","NO  REC","OK ","OK ",    000882.824,    -001.050,    -161.032,    0019.192,    0107.835
"FRM_SS2_TRK_CMP_EDR_2760.DAT   ",2006-03-06T12:09:23.51 ,"1/0089726959.59394",    2,    4,    1920,"SS2","B3","B1","B3","B1","PISd",1,2,1,1,"B2", 0,11,   0, 0,    0,"TRK","NO  REC","OK ","OK ",    000879.567,    -001.180,    -161.035,    0019.193,    0107.863
"FRM_SS3_TRK_CMP_EDR_2760.DAT   ",2006-03-06T12:09:28.04 ,"1/0089726964.28324",    3,    0,   74446,"SS3","B3","B2","B3","B2","PISd",0,2,1,1,"B2", 0,15,   1, 1,    0,"TRK","NO  REC","OK ","OK ",    000873.980,    -001.403,    -161.040,    0019.194,    0107.911
"FRM_SS3_TRK_CMP_EDR_2760.DAT   ",2006-03-06T12:09:30.13 ,"1/0089726966.34229",    3,    1,   74446,"SS3","B3","B2","B3","B2","PISd",0,2,1,1,"B2", 0,15,   1, 1,    0,"TRK","NO  REC","OK ","OK ",    000871.407,    -001.506,    -161.043,    0019.194,    0107.933
"FRM_SS3_TRK_CMP_EDR_2760.DAT   ",2006-03-06T12:09:32.21 ,"1/0089726968.39618",    3,    2,   74446,"SS3","B3","B2","B3","B2","PISd",0,2,1,1,"B2", 0,15,   1, 1,    0,"TRK","NO  REC","OK ","OK ",    000868.846,    -001.609,    -161.045,    0019.194,    0107.955
"FRM_SS3_TRK_CMP_EDR_2760.DAT   ",2006-03-06T12:09:34.29 ,"1/0089726970.45008",    3,    3,   74446,"SS3","B3","B2","B3","B2","PISd",0,2,1,1,"B2", 0,15,   1, 1,    0,"TRK","NO  REC","OK ","OK ",    000866.289,    -001.712,    -161.047,    0019.195,    0107.976
"FRM_SS3_TRK_CMP_EDR_2760.DAT   ",2006-03-06T12:09:36.37 ,"1/0089726972.49883",    3,    4,   74446,"SS3","B3","B2","B3","B2","PISd",0,2,1,1,"B2", 0,15,   1, 1,    0,"TRK","NO  REC","OK ","OK ",    000863.746,    -001.815,    -161.050,    0019.195,    0107.998
"FRM_SS3_TRK_CMP_EDR_2760.DAT   ",2006-03-06T12:09:38.44 ,"1/0089726974.54757",    3,    5,   74446,"SS3","B3","B2","B3","B2","PISd",0,2,1,1,"B2", 0,15,   1, 1,    0,"TRK","NO  REC","OK ","OK ",    000861.206,    -001.918,    -161.052,    0019.196,    0108.020
"FRM_SS3_TRK_CMP_EDR_2760.DAT   ",2006-03-06T12:09:40.51 ,"1/0089726976.59117",    3,    6,   74446,"SS3","B3","B2","B3","B2","PISd",0,2,1,1,"B2", 0,15,   1, 1,    0,"TRK","NO  REC","OK ","OK ",    000858.680,    -002.020,    -161.054,    0019.196,    0108.042
"FRM_SS3_TRK_CMP_EDR_2760.DAT   ",2006-03-06T12:09:42.58 ,"1/0089726978.63477",    3,    7,   74446,"SS3","B3","B2","B3","B2","PISd",0,2,1,1,"B2", 0,15,   1, 1,    0,"TRK","NO  REC","OK ","OK ",    000856.157,    -002.123,    -161.057,    0019.196,    0108.063
"FRM_SS3_TRK_CMP_EDR_2760.DAT   ",2006-03-06T12:09:44.63 ,"1/0089726981.01785",    3,    8,   74446,"SS3","B3","B2","B3","B2","PISd",0,2,1,1,"B2", 0,15,   1, 1,    0,"TRK","NO  REC","OK ","OK ",    000853.648,    -002.226,    -161.059,    0019.197,    0108.085
"FRM_SS3_TRK_CMP_EDR_2760.DAT   ",2006-03-06T12:09:46.69 ,"1/0089726983.05630",    3,    9,   74446,"SS3","B3","B2","B3","B2","PISd",0,2,1,1,"B2", 0,15,   1, 1,    0,"TRK","NO  REC","OK ","OK ",    000851.143,    -002.328,    -161.061,    0019.197,    0108.106
"FRM_SS3_TRK_CMP_EDR_2760.DAT   ",2006-03-06T12:09:48.75 ,"1/0089726985.09475",    3,   10,   74446,"SS3","B3","B2","B3","B2","PISd",0,2,1,1,"B2", 0,15,   1, 1,    0,"TRK","IEC  OK","OK ","OK ",    000848.641,    -002.431,    -161.064,    0019.198,    0108.127
"FRM_SS3_TRK_CMP_EDR_2760.DAT   ",2006-03-06T12:09:50.80 ,"1/0089726987.12805",    3,   11,   74446,"SS3","B3","B2","B3","B2","PISd",0,2,1,1,"B2", 0,15,   1, 1,    0,"TRK","NO  REC","OK ","OK ",    000846.152,    -002.533,    -161.066,    0019.198,    0108.149
"FRM_SS3_TRK_CMP_EDR_2760.DAT   ",2006-03-06T12:09:52.85 ,"1/0089726989.16134",    3,   12,   74446,"SS3","B3","B2","B3","B2","PISd",0,2,1,1,"B2", 0,15,   1, 1,    0,"TRK","NO  REC","OK ","OK ",    000843.668,    -002.636,    -161.068,    0019.199,    0108.170
"FRM_SS3_TRK_CMP_EDR_2760.DAT   ",2006-03-06T12:09:54.90 ,"1/0089726991.18949",    3,   13,   74446,"SS3","B3","B2","B3","B2","PISd",0,2,1,1,"B2", 0,15,   1, 1,    0,"TRK","NO  REC","OK ","OK ",    000841.196,    -002.738,    -161.071,    0019.199,    0108.191
"FRM_SS3_TRK_CMP_EDR_2760.DAT   ",2006-03-06T12:09:56.94 ,"1/0089726993.21764",    3,   14,   74446,"SS3","B3","B2","B3","B2","PISd",0,2,1,1,"B2", 0,15,   1, 1,    0,"TRK","NO  REC","OK ","OK ",    000838.728,    -002.841,    -161.073,    0019.199,    0108.212
"FRM_SS3_TRK_CMP_EDR_2760.DAT   ",2006-03-06T12:09:58.97 ,"1/0089726995.24064",    3,   15,   74446,"SS3","B3","B2","B3","B2","PISd",0,2,1,1,"B2", 0,15,   1, 1,    0,"TRK","NO  REC","OK ","OK ",    000836.274,    -002.943,    -161.075,    0019.200,    0108.233
"FRM_SS3_TRK_CMP_EDR_2760.DAT   ",2006-03-06T12:10:01.01 ,"1/0089726997.26364",    3,   16,   74446,"SS3","B3","B2","B3","B2","PISd",0,2,1,1,"B2", 0,15,   1, 1,    0,"TRK","NO  REC","OK ","OK ",    000833.823,    -003.045,    -161.077,    0019.200,    0108.254
"FRM_SS3_TRK_CMP_EDR_2760.DAT   ",2006-03-06T12:10:03.04 ,"1/0089726999.28149",    3,   17,   74446,"SS3","B3","B2","B3","B2","PISd",0,2,1,1,"B2", 0,15,   1, 1,    0,"TRK","NO  REC","OK ","OK ",    000831.385,    -003.147,    -161.079,    0019.201,    0108.275
"FRM_SS3_TRK_CMP_EDR_2760.DAT   ",2006-03-06T12:10:05.06 ,"1/0089727001.29934",    3,   18,   74446,"SS3","B3","B2","B3","B2","PISd",0,2,1,1,"B2", 0,15,   1, 1,    0,"TRK","NO  REC","OK ","OK ",    000828.951,    -003.249,    -161.082,    0019.201,    0108.296
"FRM_SS3_TRK_CMP_EDR_2760.DAT   ",2006-03-06T12:10:07.08 ,"1/0089727003.31204",    3,   19,   74446,"SS3","B3","B2","B3","B2","PISd",0,2,1,1,"B2", 0,15,   1, 1,    0,"TRK","NO  REC","OK ","OK ",    000826.530,    -003.351,    -161.084,    0019.201,    0108.316
"FRM_SS3_TRK_CMP_EDR_2760.DAT   ",2006-03-06T12:10:09.10 ,"1/0089727005.32474",    3,   20,   74446,"SS3","B3","B2","B3","B2","PISd",0,2,1,1,"B2", 0,15,   1, 1,    0,"TRK","NO  REC","OK ","OK ",    000824.113,    -003.453,    -161.086,    0019.202,    0108.337
"FRM_SS3_TRK_CMP_EDR_2760.DAT   ",2006-03-06T12:10:11.11 ,"1/0089727007.33229",    3,   21,   74446,"SS3","B3","B2","B3","B2","PISd",0,2,1,1,"B2", 0,15,   1, 1,    0,"TRK","NO  REC","OK ","OK ",    000821.709,    -003.554,    -161.088,    0019.202,    0108.358
"FRM_SS3_TRK_CMP_EDR_2760.DAT   ",2006-03-06T12:10:13.13 ,"1/0089727009.33984",    3,   22,   74446,"SS3","B3","B2","B3","B2","PISd",0,2,1,1,"B2", 0,15,   1, 1,    0,"TRK","NO  REC","OK ","OK ",    000819.309,    -003.656,    -161.090,    0019.203,    0108.378
"FRM_SS3_TRK_CMP_EDR_2760.DAT   ",2006-03-06T12:10:15.14 ,"1/0089727011.34739",    3,   23,   74446,"SS3","B3","B2","B3","B2","PISd",0,2,1,1,"B2", 0,15,   1, 1,    0,"TRK","NO  REC","OK ","OK ",    000816.913,    -003.758,    -161.092,    0019.203,    0108.398
"FRM_SS3_TRK_CMP_EDR_2760.DAT   ",2006-03-06T12:10:17.14 ,"1/0089727013.34979",    3,   24,   74446,"SS3","B3","B2","B3","B2","PISd",0,2,1,1,"B2", 0,15,   1, 1,    0,"TRK","NO  REC","OK ","OK ",    000814.529,    -003.860,    -161.094,    0019.203,    0108.419
"FRM_SS3_TRK_CMP_EDR_2760.DAT   ",2006-03-06T12:10:19.14 ,"1/0089727015.35219",    3,   25,   74446,"SS3","B3","B2","B3","B2","PISd",0,2,1,1,"B2", 0,15,   1, 1,    0,"TRK","NO  REC","OK ","OK ",    000812.149,    -003.961,    -161.097,    0019.204,    0108.439
"FRM_SS3_TRK_CMP_EDR_2760.DAT   ",2006-03-06T12:10:21.14 ,"1/0089727017.34944",    3,   26,   74446,"SS3","B3","B2","B3","B2","PISd",0,2,1,1,"B2", 0,15,   1, 1,    0,"TRK","NO  REC","OK ","OK ",    000809.783,    -004.063,    -161.099,    0019.204,    0108.459
"FRM_SS3_TRK_CMP_EDR_2760.DAT   ",2006-03-06T12:10:23.14 ,"1/0089727019.34669",    3,   27,   74446,"SS3","B3","B2","B3","B2","PISd",0,2,1,1,"B2", 0,15,   1, 1,    0,"TRK","NO  REC","OK ","OK ",    000807.420,    -004.164,    -161.101,    0019.204,    0108.479
"FRM_SS3_TRK_CMP_EDR_2760.DAT   ",2006-03-06T12:10:25.12 ,"1/0089727021.33879",    3,   28,   74446,"SS3","B3","B2","B3","B2","PISd",0,2,1,1,"B2", 0,15,   1, 1,    0,"TRK","NO  REC","OK ","OK ",    000805.070,    -004.266,    -161.103,    0019.205,    0108.499
"FRM_SS3_TRK_CMP_EDR_2760.DAT   ",2006-03-06T12:10:27.11 ,"1/0089727023.33089",    3,   29,   74446,"SS3","B3","B2","B3","B2","PISd",0,2,1,1,"B2", 0,15,   1, 1,    0,"TRK","NO  REC","OK ","OK ",    000802.723,    -004.367,    -161.105,    0019.205,    0108.519
"FRM_SS3_TRK_CMP_EDR_2760.DAT   ",2006-03-06T12:10:29.09 ,"1/0089727025.31785",    3,   30,   74446,"SS3","B3","B2","B3","B2","PISd",0,2,1,1,"B2", 0,15,   1, 1,    0,"TRK","NO  REC","OK ","OK ",    000800.390,    -004.468,    -161.107,    0019.206,    0108.539
"FRM_SS3_TRK_CMP_EDR_2760.DAT   ",2006-03-06T12:10:31.07 ,"1/0089727027.30480",    3,   31,   74446,"SS3","B3","B2","B3","B2","PISd",0,2,1,1,"B2", 0,15,   1, 1,    0,"TRK","NO  REC","OK ","OK ",    000798.061,    -004.569,    -161.109,    0019.206,    0108.559
"FRM_SS3_TRK_CMP_EDR_2760.DAT   ",2006-03-06T12:10:33.05 ,"1/0089727029.29175",    3,   32,   74446,"SS3","B3","B2","B3","B2","PISd",0,2,1,1,"B2", 0,15,   1, 1,    0,"TRK","NO  REC","OK ","OK ",    000795.735,    -004.671,    -161.111,    0019.206,    0108.579
"FRM_SS3_TRK_CMP_EDR_2760.DAT   ",2006-03-06T12:10:35.02 ,"1/0089727031.27355",    3,   33,   74446,"SS3","B3","B2","B3","B2","PISd",0,2,1,1,"B2", 0,15,   1, 1,    0,"TRK","NO  REC","OK ","OK ",    000793.422,    -004.772,    -161.113,    0019.207,    0108.599
"FRM_SS3_TRK_CMP_EDR_2760.DAT   ",2006-03-06T12:10:37.00 ,"1/0089727033.25536",    3,   34,   74446,"SS3","B3","B2","B3","B2","PISd",0,2,1,1,"B2", 0,15,   1, 1,    0,"TRK","NO  REC","OK ","OK ",    000791.113,    -004.873,    -161.115,    0019.207,    0108.618
"FRM_SS3_TRK_CMP_EDR_2760.DAT   ",2006-03-06T12:10:38.96 ,"1/0089727035.23201",    3,   35,   74446,"SS3","B3","B2","B3","B2","PISd",0,2,1,1,"B2", 0,15,   1, 1,    0,"TRK","NO  REC","OK ","OK ",    000788.816,    -004.974,    -161.117,    0019.208,    0108.638
"FRM_SS3_TRK_CMP_EDR_2760.DAT   ",2006-03-06T12:10:40.93 ,"1/0089727037.20866",    3,   36,   74446,"SS3","B3","B2","B3","B2","PISd",0,2,1,1,"B2", 0,15,   1, 1,    0,"TRK","NO  REC","OK ","OK ",    000786.524,    -005.075,    -161.119,    0019.208,    0108.657
"FRM_SS3_TRK_CMP_EDR_2760.DAT   ",2006-03-06T12:10:42.88 ,"1/0089727039.18017",    3,   37,   74446,"SS3","B3","B2","B3","B2","PISd",0,2,1,1,"B2", 0,15,   1, 1,    0,"TRK","NO  REC","OK ","OK ",    000784.244,    -005.175,    -161.121,    0019.209,    0108.677
"FRM_SS3_TRK_CMP_EDR_2760.DAT   ",2006-03-06T12:10:44.84 ,"1/0089727041.15167",    3,   38,   74446,"SS3","B3","B2","B3","B2","PISd",0,2,1,1,"B2", 0,15,   1, 1,    0,"TRK","NO  REC","OK ","OK ",    000781.968,    -005.276,    -161.123,    0019.209,    0108.696
"FRM_SS3_TRK_CMP_EDR_2760.DAT   ",2006-03-06T12:10:46.80 ,"1/0089727043.12318",    3,   39,   74446,"SS3","B3","B2","B3","B2","PISd",0,2,1,1,"B2", 0,15,   1, 1,    0,"TRK","NO  REC","OK ","OK ",    000779.695,    -005.377,    -161.125,    0019.209,    0108.715
"FRM_SS3_TRK_CMP_EDR_2760.DAT   ",2006-03-06T12:10:48.74 ,"1/0089727045.08953",    3,   40,   74446,"SS3","B3","B2","B3","B2","PISd",0,2,1,1,"B2", 0,15,   1, 1,    0,"TRK","NO  REC","OK ","OK ",    000777.436,    -005.478,    -161.127,    0019.210,    0108.735
"FRM_SS3_TRK_CMP_EDR_2760.DAT   ",2006-03-06T12:10:50.69 ,"1/0089727047.05588",    3,   41,   74446,"SS3","B3","B2","B3","B2","PISd",0,2,1,1,"B2", 0,15,   1, 1,    0,"TRK","NO  REC","OK ","OK ",    000775.180,    -005.578,    -161.129,    0019.210,    0108.754
"FRM_SS3_TRK_CMP_EDR_2760.DAT   ",2006-03-06T12:10:52.63 ,"1/0089727049.01709",    3,   42,   74446,"SS3","B3","B2","B3","B2","PISd",0,2,1,1,"B2", 0,15,   1, 1,    0,"TRK","NO  REC","OK ","OK ",    000772.937,    -005.679,    -161.131,    0019.211,    0108.773
"FRM_SS3_TRK_CMP_EDR_2760.DAT   ",2006-03-06T12:10:54.57 ,"1/0089727050.63365",    3,   43,   74446,"SS3","B3","B2","B3","B2","PISd",0,2,1,1,"B2", 0,15,   1, 1,    0,"TRK","NO  REC","OK ","OK ",    000770.698,    -005.779,    -161.132,    0019.211,    0108.792
"FRM_SS3_TRK_CMP_EDR_2760.DAT   ",2006-03-06T12:10:56.51 ,"1/0089727052.58971",    3,   44,   74446,"SS3","B3","B2","B3","B2","PISd",0,2,1,1,"B2", 0,15,   1, 1,    0,"TRK","NO  REC","OK ","OK ",    000768.471,    -005.879,    -161.134,    0019.211,    0108.811
"FRM_SS3_TRK_CMP_EDR_2760.DAT   ",2006-03-06T12:10:58.44 ,"1/0089727054.54576",    3,   45,   74446,"SS3","B3","B2","B3","B2","PISd",0,2,1,1,"B2", 0,15,   1, 1,    0,"TRK","NO  REC","OK ","OK ",    000766.248,    -005.980,    -161.136,    0019.212,    0108.829
"FRM_SS3_TRK_CMP_EDR_2760.DAT   ",2006-03-06T12:11:00.37 ,"1/0089727056.50182",    3,   46,   74446,"SS3","B3","B2","B3","B2","PISd",0,2,1,1,"B2", 0,15,   1, 1,    0,"TRK","NO  REC","OK ","OK ",    000764.029,    -006.080,    -161.138,    0019.212,    0108.848
"FRM_SS3_TRK_CMP_EDR_2760.DAT   ",2006-03-06T12:11:02.30 ,"1/0089727058.45273",    3,   47,   74446,"SS3","B3","B2","B3","B2","PISd",0,2,1,1,"B2", 0,15,   1, 1,    0,"TRK","NO  REC","OK ","OK ",    000761.822,    -006.180,    -161.140,    0019.212,    0108.867
"FRM_SS3_TRK_CMP_EDR_2760.DAT   ",2006-03-06T12:11:04.22 ,"1/0089727060.40363",    3,   48,   74446,"SS3","B3","B2","B3","B2","PISd",0,2,1,1,"B2", 0,15,   1, 1,    0,"TRK","NO  REC","OK ","OK ",    000759.620,    -006.280,    -161.142,    0019.213,    0108.886
"FRM_SS3_TRK_CMP_EDR_2760.DAT   ",2006-03-06T12:11:06.14 ,"1/0089727062.34939",    3,   49,   74446,"SS3","B3","B2","B3","B2","PISd",0,2,1,1,"B2", 0,15,   1, 1,    0,"TRK","NO  REC","OK ","OK ",    000757.429,    -006.380,    -161.144,    0019.213,    0108.904
"FRM_SS3_TRK_CMP_EDR_2760.DAT   ",2006-03-06T12:11:08.06 ,"1/0089727064.29514",    3,   50,   74446,"SS3","B3","B2","B3","B2","PISd",0,2,1,1,"B2", 0,15,   1, 1,    0,"TRK","NO  REC","OK ","OK ",    000755.243,    -006.480,    -161.145,    0019.214,    0108.923
"FRM_SS3_TRK_CMP_EDR_2760.DAT   ",2006-03-06T12:11:09.98 ,"1/0089727066.24090",    3,   51,   74446,"SS3","B3","B2","B3","B2","PISd",0,2,1,1,"B2", 0,15,   1, 1,    0,"TRK","NO  REC","OK ","OK ",    000753.060,    -006.581,    -161.147,    0019.214,    0108.941
"FRM_SS3_TRK_CMP_EDR_2760.DAT   ",2006-03-06T12:11:11.88 ,"1/0089727068.18151",    3,   52,   74446,"SS3","B3","B2","B3","B2","PISd",0,2,1,1,"B2", 0,15,   1, 1,    0,"TRK","NO  REC","OK ","OK ",    000750.890,    -006.680,    -161.149,    0019.214,    0108.959
"FRM_SS3_TRK_CMP_EDR_2760.DAT   ",2006-03-06T12:11:13.79 ,"1/0089727070.12211",    3,   53,   74446,"SS3","B3","B2","B3","B2","PISd",0,2,1,1,"B2", 0,15,   1, 1,    0,"TRK","NO  REC","OK ","OK ",    000748.723,    -006.780,    -161.151,    0019.215,    0108.978
"FRM_SS3_TRK_CMP_EDR_2760.DAT   ",2006-03-06T12:11:15.70 ,"1/0089727072.05757",    3,   54,   74446,"SS3","B3","B2","B3","B2","PISd",0,2,1,1,"B2", 0,15,   1, 1,    0,"TRK","NO  REC","OK ","OK ",    000746.570,    -006.880,    -161.152,    0019.215,    0108.996
"FRM_SS3_TRK_CMP_EDR_2760.DAT   ",2006-03-06T12:11:17.60 ,"1/0089727073.64839",    3,   55,   74446,"SS3","B3","B2","B3","B2","PISd",0,2,1,1,"B2", 0,15,   1, 1,    0,"TRK","NO  REC","OK ","OK ",    000744.419,    -006.980,    -161.154,    0019.216,    0109.014
"FRM_SS3_TRK_CMP_EDR_2760.DAT   ",2006-03-06T12:11:19.50 ,"1/0089727075.58385",    3,   56,   74446,"SS3","B3","B2","B3","B2","PISd",0,2,1,1,"B2", 0,15,   1, 1,    0,"TRK","NO  REC","OK ","OK ",    000742.273,    -007.080,    -161.156,    0019.216,    0109.032
"FRM_SS3_TRK_CMP_EDR_2760.DAT   ",2006-03-06T12:11:21.39 ,"1/0089727077.51415",    3,   57,   74446,"SS3","B3","B2","B3","B2","PISd",0,2,1,1,"B2", 0,15,   1, 1,    0,"TRK","NO  REC","OK ","OK ",    000740.139,    -007.179,    -161.158,    0019.216,    0109.050
"FRM_SS3_TRK_CMP_EDR_2760.DAT   ",2006-03-06T12:11:23.29 ,"1/0089727079.44446",    3,   58,   74446,"SS3","B3","B2","B3","B2","PISd",0,2,1,1,"B2", 0,15,   1, 1,    0,"TRK","NO  REC","OK ","OK ",    000738.008,    -007.279,    -161.159,    0019.217,    0109.068
"FRM_SS3_TRK_CMP_EDR_2760.DAT   ",2006-03-06T12:11:25.17 ,"1/0089727081.36962",    3,   59,   74446,"SS3","B3","B2","B3","B2","PISd",0,2,1,1,"B2", 0,15,   1, 1,    0,"TRK","NO  REC","OK ","OK ",    000735.891,    -007.378,    -161.161,    0019.217,    0109.086
"FRM_SS3_TRK_CMP_EDR_2760.DAT   ",2006-03-06T12:11:27.06 ,"1/0089727083.29478",    3,   60,   74446,"SS3","B3","B2","B3","B2","PISd",0,2,1,1,"B2", 0,15,   1, 1,    0,"TRK","NO  REC","OK ","OK ",    000733.776,    -007.477,    -161.163,    0019.218,    0109.104
"FRM_SS3_TRK_CMP_EDR_2760.DAT   ",2006-03-06T12:11:28.94 ,"1/0089727085.21994",    3,   61,   74446,"SS3","B3","B2","B3","B2","PISd",0,2,1,1,"B2", 0,15,   1, 1,    0,"TRK","NO  REC","OK ","OK ",    000731.666,    -007.577,    -161.164,    0019.218,    0109.121
"FRM_SS3_TRK_CMP_EDR_2760.DAT   ",2006-03-06T12:11:30.82 ,"1/0089727087.13995",    3,   62,   74446,"SS3","B3","B2","B3","B2","PISd",0,2,1,1,"B2", 0,15,   1, 1,    0,"TRK","NO  REC","OK ","OK ",    000729.568,    -007.676,    -161.166,    0019.218,    0109.139
"FRM_SS3_TRK_CMP_EDR_2760.DAT   ",2006-03-06T12:11:32.70 ,"1/0089727089.05996",    3,   63,   74446,"SS3","B3","B2","B3","B2","PISd",0,2,1,1,"B2", 0,15,   1, 1,    0,"TRK","NO  REC","OK ","OK ",    000727.473,    -007.775,    -161.168,    0019.219,    0109.157
"FRM_SS3_TRK_CMP_EDR_2760.DAT   ",2006-03-06T12:11:34.57 ,"1/0089727090.63018",    3,   64,   74446,"SS3","B3","B2","B3","B2","PISd",0,2,1,1,"B2", 0,15,   1, 1,    0,"TRK","NO  REC","OK ","OK ",    000725.391,    -007.874,    -161.169,    0019.219,    0109.174
"FRM_SS3_TRK_CMP_EDR_2760.DAT   ",2006-03-06T12:11:36.44 ,"1/0089727092.54503",    3,   65,   74446,"SS3","B3","B2","B3","B2","PISd",0,2,1,1,"B2", 0,15,   1, 1,    0,"TRK","NO  REC","OK ","OK ",    000723.313,    -007.974,    -161.171,    0019.220,    0109.191